Flight Track Log - Related Links

Times and Time Zones

All times are in EDT time to prevent confusion due to time zone crossing. See the EJA922 flight status page for this flight to view local times or setup timezone preferences in your user account.

Time Position Orientation Groundspeed Altitude Reporting Facility
EDT Latitude Longitude Course Direction KTS MPH feet Rate Location/Type
14:45 34.0000 -118.5333 338° Northwest 220 253 3,300  Level Southern California TRACON
14:46 33.9958 -118.5714 262° West 227 261 4,600 2,387 Climbing Los Angeles Center
14:47 33.9961 -118.6592 270° West 260 299 7,000 1,296 Climbing Los Angeles Center
14:48 34.0353 -118.7342 302° West 283 326 7,300 581 Climbing Los Angeles Center
14:49 34.1036 -118.6958 25° Northeast 282 325 8,200 1,645 Climbing Los Angeles Center
14:50 34.1714 -118.6375 35° Northeast 293 337 10,700 2,177 Climbing Los Angeles Center
14:51 34.3184 -118.6092 338° Northwest  Level FlightAware Approximate
14:51 34.2567 -118.6136 13° North 331 381 12,700  Level Los Angeles Center
14:52 34.3808 -118.6494 347° North 397 457 14,600 1,742 Climbing Los Angeles Center
14:53 34.4883 -118.7019 338° Northwest 416 479 16,300 1,645 Climbing Los Angeles Center
14:54 34.5975 -118.7564 338° Northwest 425 489 18,000 1,694 Climbing Los Angeles Center
14:55 34.7078 -118.8144 337° Northwest 432 497 19,800 1,680 Climbing Los Angeles Center
14:56 34.8178 -118.8786 309° West 443 510 21,500 1,728 Climbing Los Angeles Center
14:57 34.8312 -118.8967 309° West  Level FlightAware Approximate
14:57 34.9267 -118.9817 322° Northwest 447 514 23,400  Level Los Angeles Center
14:59 35.1019 -119.1544 321° Northwest 454 522 26,300 1,500 Climbing Oakland Center
15:00 35.2025 -119.2539 321° Northwest 463 533 27,700 551 Climbing Oakland Center
15:02 35.3014 -119.3514 321° Northwest  Level FlightAware Approximate
15:02 35.4431 -119.4883 321° Northwest 514 592 28,000  Level Oakland Center
15:03 35.5564 -119.6008 321° Northwest 523 602 28,000  Level Oakland Center
15:04 35.6708 -119.7156 321° Northwest 532 612 28,000  Level Oakland Center
15:07 35.9436 -119.9908 321° Northwest 526 605 28,000  Level Los Angeles Center
15:07 36.0086 -120.0533 322° Northwest 523 602 28,000  Level Oakland Center
15:08 36.1428 -120.1892 321° Northwest 522 601 28,000  Level Oakland Center
15:09 36.2542 -120.3019 321° Northwest 519 597 28,000  Level Oakland Center
15:10 36.3672 -120.4186 320° Northwest 525 604 28,000 -49 Level Oakland Center
15:11 36.4775 -120.5308 321° Northwest 519 597 27,900 -1,024 Descending Oakland Center
15:12 36.5892 -120.6481 320° Northwest 524 603 25,900 -1,742 Descending Oakland Center
15:13 36.6964 -120.7592 320° Northwest 512 589 24,300 -1,659 Descending Oakland Center
15:14 36.7989 -120.8731 318° Northwest 500 575 22,500 -1,854 Descending Oakland Center
15:15 36.9206 -121.0122 318° Northwest 490 564 20,500 -2,000 Descending Oakland Center
15:16 37.0178 -121.1236 318° Northwest 477 549 18,400 -2,459 Descending Oakland Center
15:17 37.1119 -121.2331 317° Northwest 464 534 15,500 -2,927 Descending Oakland Center
15:19 37.1994 -121.3339 317° Northwest 435 501 12,400 -2,683 Descending Oakland Center
15:20 37.2783 -121.4272 317° Northwest 389 448 10,000 -1,610 Descending Oakland Center
15:21 37.3439 -121.5025 318° Northwest 331 381 9,100 -976 Descending Oakland Center
15:22 37.3983 -121.5667 317° Northwest 290 334 8,000 -1,073 Descending Oakland Center
15:23 37.4583 -121.6333 319° Northwest 286 329 6,900 -1,024 Descending Oakland Center
15:24 37.5294 -121.7158 317° Northwest 290 334 5,900 -726 Descending Oakland Center
15:25 37.5833 -121.7833 315° West 266 306 5,400 -419 Descending Northern Cal TRACON
15:26 37.6167 -121.8833 293° West 249 287 5,000 -571 Descending Northern Cal TRACON
15:27 37.6500 -121.9500 302° West 218 251 4,200 -1,150 Descending Northern Cal TRACON
15:28 37.6667 -122.0167 288° West 230 265 2,700 -1,200 Descending Northern Cal TRACON
15:29 37.6833 -122.1000 284° West 216 249 1,800 -900 Descending Northern Cal TRACON
15:30 37.7167 -122.1500 310° West 183 211 900 -850 Descending Northern Cal TRACON
15:31 37.7167 -122.2000 270° West 122 140 100 -800 Descending Northern Cal TRACON
15:33 37.7167 -122.2167 270° West  Level FlightAware Approximate
15:40 37.7213 -122.2207 270° West  Level Estimated
15:41 37.7167 -122.2167 270° West  Level FlightAware Approximate

Login

Don't have an account? Register now (free) for customized features, flight alerts, and more!